[[{"header":{"parameterUnit":"m.s-1","parameterCategory":1,"la1":30.2992,"la2":30.254,"lo1":-89.0895,"lo2":-89.0443,"dy":0.0025,"dx":0.0025,"nx":19,"ny":19,"refTime":"2026-04-23T03:00:00:Z","depth":0,"parameterNumber":2,"parameterNumberName":"U-component_of_WINDS"},"data":[0,0,0,-3.2612,-3.2616,-3.2776,-3.2777,-3.2977,-3.2979,0,0,0,0,0,0,0,0,0,0,0,-3.2561,-3.2562,-3.2612,-3.2616,-3.2776,-3.2777,-3.2977,-3.2979,0,0,0,0,0,0,0,0,0,0,0,-3.256,-3.2562,-3.2563,-3.2617,-3.2776,-3.2777,-3.2976,-3.2857,0,0,0,0,0,0,0,0,0,0,-3.2702,-3.2651,-3.2561,-3.2563,-3.2618,-3.2776,-3.2777,-3.2851,-3.2865,-3.2902,0,-3.2933,0,-3.2959,-3.2992,-3.2992,0,0,0,-3.2619,-3.264,-3.2687,-3.2564,-3.2619,-3.2776,-3.2705,-3.2859,-3.2874,-3.2919,-3.2936,-3.2944,-3.2962,-3.2993,-3.2994,-3.3196,-3.3196,0,0,-3.261,-3.2588,-3.2676,-3.2696,-3.267,-3.27,-3.271,-3.2868,-3.2885,-3.2937,-3.2948,-3.2966,-3.2994,-3.2996,-3.3195,-3.3196,0,0,0,-3.2583,-3.2581,-3.2625,-3.2688,-3.2717,-3.2704,-3.2716,-3.2878,-3.2894,-3.2951,-3.2968,-3.2995,-3.2998,-3.3194,-3.3195,-3.3212,0,0,0,-3.2577,-3.2565,-3.2621,-3.2608,-3.2714,-3.2799,-3.2723,-3.2883,-3.2902,-3.2967,-3.2995,-3.2999,-3.3193,-3.3195,-3.321,-3.3223,0,0,0,-3.2552,-3.2563,-3.2584,-3.2607,-3.2675,-3.2797,-3.2823,-3.2888,-3.2912,-3.2992,-3.3,-3.3193,-3.3195,-3.3208,-3.322,-3.3269,0,0,0,-3.2518,-3.2598,-3.2584,-3.268,-3.2674,-3.2807,-3.2822,-3.2922,-3.2993,-3.2996,-3.3193,-3.3195,-3.3207,-3.3218,-3.3266,-3.3305,-3.3319,0,0,-3.2606,-3.2607,-3.2666,-3.2658,-3.2788,-3.2784,-3.2917,-3.3003,-3.3032,-3.314,-3.3145,-3.321,-3.322,-3.3268,-3.3409,-3.342,0,0,0,-3.2686,-3.2727,-3.2767,-3.2833,-3.29,-3.2959,-3.3028,-3.306,-3.3153,-3.3082,-3.3243,-3.3249,-3.3278,-3.3298,-3.3307,-3.3333,-3.3204,-3.3203,-3.3203,-3.2778,-3.2809,-3.2908,-3.2959,-3.3023,-3.3093,-3.3148,-3.3203,-3.3217,-3.3254,-3.3286,-3.3367,-3.3389,-3.3396,-3.3423,-3.331,-3.331,-3.331,-3.331,-3.2908,-3.2971,-3.2988,-3.3088,-3.3122,-3.3207,-3.3278,-3.3285,-3.337,-3.3346,-3.3374,-3.3344,-3.3407,-3.3433,-3.3312,-3.3312,-3.3312,-3.3311,-3.3311,-3.297,-3.3006,-3.3044,-3.3142,-3.3215,-3.3265,-3.3344,-3.3373,-3.34,-3.3428,-3.3463,-3.3463,-3.3465,-3.3443,-3.3443,-3.3444,-3.3444,-3.3444,-3.3444,-3.3019,-3.3061,-3.3125,-3.3203,-3.3249,-3.3313,-3.3385,-3.3431,-3.3489,-3.3504,-3.3504,-3.3514,-3.3408,-3.338,-3.3449,-3.3448,-3.3447,-3.3447,-3.3447,-3.3138,-3.3115,-3.3213,-3.3259,-3.3353,-3.3423,-3.3458,-3.355,-3.3593,-3.3631,-3.3636,-3.3554,-3.3557,-3.355,-3.3527,-3.3629,-3.3629,-3.3629,-3.3629,-3.3189,-3.3194,-3.33,-3.3371,-3.3444,-3.3486,-3.3596,-3.3652,-3.3708,-3.3736,-3.3726,-3.3698,-3.3689,-3.3698,-3.3688,-3.3666,-3.3802,-3.3802,-3.3802,-3.3263,-3.3276,-3.3363,-3.3416,-3.3492,-3.3556,-3.366,-3.3742,-3.38,-3.381,-3.3758,-3.3751,-3.3707,-3.3691,-3.3698,-3.3681,-3.3642,0,0]},{"header":{"parameterUnit":"m.s-1","parameterCategory":1,"la1":30.2992,"la2":30.254,"lo1":-89.0895,"lo2":-89.0443,"dy":0.0025,"dx":0.0025,"nx":19,"ny":19,"refTime":"2026-04-23T03:00:00:Z","depth":0,"parameterNumber":3,"parameterNumberName":"V-component_of_WINDS"},"data":[0,0,0,4.975,4.975,4.9726,4.9726,4.9724,4.9724,0,0,0,0,0,0,0,0,0,0,0,4.9774,4.9775,4.975,4.975,4.9726,4.9726,4.9724,4.9724,0,0,0,0,0,0,0,0,0,0,0,4.9774,4.9775,4.9775,4.975,4.9726,4.9726,4.9724,4.9731,0,0,0,0,0,0,0,0,0,0,4.9749,4.9789,4.9774,4.9775,4.975,4.9726,4.9726,4.9731,4.9731,4.9746,0,4.9765,0,4.9745,4.9726,4.9726,0,0,0,4.9737,4.9789,4.9767,4.9775,4.975,4.9727,4.9733,4.9731,4.973,4.9746,4.9765,4.9764,4.9745,4.9726,4.9726,4.9858,4.9859,0,0,4.9738,4.9779,4.9768,4.9768,4.9774,4.9734,4.9733,4.973,4.9753,4.9765,4.9763,4.9745,4.9726,4.9726,4.9857,4.9858,0,0,0,4.9751,4.9781,4.9758,4.9769,4.9763,4.9734,4.9732,4.9753,4.9742,4.9763,4.9745,4.9726,4.9726,4.9855,4.9857,4.9957,0,0,0,4.9751,4.9788,4.9759,4.9784,4.9763,4.9758,4.9756,4.9743,4.9741,4.9745,4.9726,4.9727,4.9854,4.9856,4.9951,4.9997,0,0,0,4.977,4.979,4.9792,4.9787,4.9778,4.9757,4.9745,4.9741,4.973,4.9726,4.9727,4.9853,4.9856,4.9946,4.9988,5.0043,0,0,0,4.9802,4.9882,4.9795,4.9877,4.9778,4.9819,4.9745,4.9773,4.9781,4.9726,4.9854,4.9857,4.9944,4.9983,5.0038,5.0095,5.0123,0,0,4.9926,4.9899,4.9944,4.9865,4.9931,4.9819,4.99,4.9869,4.9831,4.9851,4.9853,4.9953,4.9988,5.0042,5.0268,5.0291,0,0,0,4.9997,5.003,5.0038,5.0048,5.0026,5.001,4.9962,4.995,4.9964,4.985,4.9987,5.0006,5.0036,5.0061,5.0081,5.0103,4.9871,4.9871,4.987,5.0231,5.0178,5.0248,5.0192,5.0203,5.0151,5.0154,5.0129,5.0073,5.0107,5.0112,5.0256,5.0287,5.0302,5.0326,5.0139,5.0139,5.0139,5.014,5.0407,5.0444,5.0367,5.0408,5.0351,5.0385,5.0338,5.0297,5.0319,5.0248,5.0271,5.0197,5.0328,5.0346,5.0147,5.0145,5.0145,5.0144,5.0143,5.0553,5.0562,5.0546,5.0553,5.0565,5.0505,5.053,5.0477,5.0428,5.0451,5.045,5.0448,5.0439,5.0455,5.0455,5.0456,5.0456,5.0456,5.0457,5.0711,5.069,5.0717,5.07,5.0699,5.069,5.0639,5.0636,5.0618,5.0578,5.0578,5.0518,5.0351,5.031,5.0464,5.0463,5.0462,5.0461,5.0461,5.0908,5.0855,5.0897,5.0896,5.087,5.0884,5.0817,5.0815,5.0804,5.0818,5.0752,5.0638,5.0606,5.0591,5.0556,5.0764,5.0764,5.0764,5.0764,5.1031,5.101,5.104,5.1041,5.1036,5.0979,5.1027,5.0988,5.0939,5.0929,5.0891,5.0841,5.0827,5.0803,5.0783,5.0749,5.1003,5.1003,5.1003,5.1148,5.1124,5.1175,5.1127,5.1103,5.1083,5.1126,5.1129,5.1063,5.1012,5.0919,5.0909,5.0828,5.0804,5.0751,5.0721,5.0658,0,0]}]]